GW6472 Weather Reports


time (UTC)temp
C
wind
direction
speed
KPH
gust
KPH
rain 1hr
cm
rain 24hr
cm
rain mn
cm
humidity
%
barometer
mb
20260510230850 14 263 3.2 9.7 0.00 0.00 0.00 31
20260510230353 14 0 1.6 9.7 0.00 0.00 0.00 33
20260510225837 14 272 1.6 9.7 0.00 0.00 0.00 30
20260510225338 14 280 3.2 9.7 0.00 0.00 0.00 33
20260510224839 15 5 1.6 17.7 0.00 0.00 0.00 30
20260510224315 15 247 4.8 17.7 0.00 0.00 0.00 29
20260510223816 15 322 0.0 9.7 0.00 0.00 0.00 30
20260510223302 15 3 1.6 11.3 0.00 0.00 0.00 28
20260510222801 15 357 3.2 11.3 0.00 0.00 0.00 29
20260510222305 16 353 3.2 9.7 0.00 0.00 0.00 28
20260510221753 15 329 0.0 6.4 0.00 0.00 0.00 30
20260510221515 16 68 3.2 6.4 0.00 0.00 0.00 29
20260510220750 16 332 1.6 9.7 0.00 0.00 0.00 27
20260510220238 16 351 1.6 11.3 0.00 0.00 0.00 27
20260510215740 16 323 1.6 12.9 0.00 0.00 0.00 29
20260510215239 16 315 9.7 12.9 0.00 0.00 0.00 28
20260510214726 15 355 1.6 9.7 0.00 0.00 0.00 30
20260510214226 16 294 3.2 9.7 0.00 0.00 0.00 28
20260510213728 16 319 3.2 9.7 0.00 0.00 0.00 30
20260510213437 16 343 0.0 6.4 0.00 0.00 0.00 27
20260510212714 16 26 3.2 11.3 0.00 0.00 0.00 28
20260510212216 17 1 3.2 11.3 0.00 0.00 0.00 25
20260510211650 17 298 0.0 6.4 0.00 0.00 0.00 29
20260510211149 17 325 1.6 4.8 0.00 0.00 0.00 25
20260510210639 16 344 3.2 4.8 0.00 0.00 0.00 26
20260510210138 15 21 1.6 6.4 0.00 0.00 0.00 29
20260510205916 16 344 3.2 9.7 0.00 0.00 0.00 26
20260510205129 16 27 0.0 9.7 0.00 0.00 0.00 28
20260510204625 16 41 0.0 6.4 0.00 0.00 0.00 26
20260510204125 16 197 3.2 12.9 0.00 0.00 0.00 27
20260510203613 16 318 1.6 12.9 0.00 0.00 0.00 30
20260510203116 15 264 3.2 3.2 0.00 0.00 0.00 29
20260510202550 14 37 1.6 9.7 0.00 0.00 0.00 28
20260510202049 14 342 1.6 9.7 0.00 0.00 0.00 30
20260510201550 15 261 4.8 9.7 0.00 0.00 0.00 28
20260510201040 16 22 3.2 9.7 0.00 0.00 0.00 27
20260510200537 17 242 6.4 9.7 0.00 0.00 0.00 26
20260510200038 17 36 4.8 6.4 0.00 0.00 0.00 25
20260510195525 17 228 4.8 16.1 0.00 0.00 0.00 28
20260510195028 16 303 3.2 16.1 0.00 0.00 0.00 27
20260510194525 16 265 3.2 12.9 0.00 0.00 0.00 26
20260510194240 15 239 4.8 9.7 0.00 0.00 0.00 27
20260510193513 15 251 4.8 14.5 0.00 0.00 0.00 28
20260510193017 15 315 1.6 14.5 0.00 0.00 0.00 27
20260510192450 16 267 1.6 14.5 0.00 0.00 0.00 28
20260510192216 14 261 8.0 11.3 0.00 0.00 0.00 32
20260510191440 15 326 1.6 14.5 0.00 0.00 0.00 30
20260510190938 15 9 1.6 14.5 0.00 0.00 0.00 27
20260510190438 15 278 0.0 11.3 0.00 0.03 0.00 30
20260510185926 16 10 1.6 9.7 0.00 0.03 0.00 25
20260510185428 16 335 1.6 9.7 0.00 0.03 0.00 26
20260510185145 16 333 3.2 9.7 0.00 0.03 0.00 26
20260510184414 16 350 3.2 11.3 0.00 0.03 0.00 26
20260510183914 15 339 3.2 20.9 0.00 0.03 0.00 27
20260510183414 15 284 16.1 20.9 0.00 0.03 0.00 27
20260510182902 15 274 1.6 11.3 0.00 0.03 0.00 29
20260510182402 15 304 3.2 16.1 0.00 0.03 0.00 26
20260510182129 15 274 4.8 16.1 0.00 0.03 0.00 27
20260510181615 15 343 1.6 9.7 0.00 0.03 0.00 29
20260510180850 14 347 3.2 9.7 0.00 0.03 0.00 28
20260510180351 14 9 1.6 16.1 0.00 0.03 0.00 28
20260510175841 14 315 1.6 17.7 0.00 0.03 0.00 28
20260510175338 15 356 1.6 17.7 0.00 0.03 0.00 30
20260510174837 15 288 1.6 14.5 0.00 0.03 0.00 28
20260510174326 15 290 3.2 11.3 0.00 0.03 0.00 32
20260510173828 15 281 3.2 9.7 0.00 0.03 0.00 30
20260510173326 13 64 4.8 9.7 0.00 0.03 0.00 29
20260510172813 15 275 4.8 9.7 0.00 0.03 0.00 27
20260510172316 15 330 1.6 9.7 0.00 0.03 0.00 29
20260510171814 15 29 4.8 9.7 0.00 0.03 0.00 29
20260510171301 13 40 1.6 9.7 0.00 0.03 0.00 29
20260510170802 15 344 3.2 4.8 0.00 0.03 0.00 28
20260510170304 15 16 0.0 6.4 0.00 0.03 0.00 34
20260510165749 15 353 1.6 6.4 0.00 0.03 0.00 30
20260510165523 15 322 0.0 6.4 0.00 0.03 0.00 28
20260510164750 15 294 1.6 4.8 0.00 0.03 0.00 27
20260510164240 14 348 3.2 6.4 0.00 0.03 0.00 26
20260510163737 14 340 3.2 16.1 0.00 0.03 0.00 29
20260510163240 14 316 3.2 16.1 0.00 0.03 0.00 32
20260510162726 15 357 1.6 9.7 0.00 0.03 0.00 29
20260510162501 14 24 3.2 9.7 0.00 0.03 0.00 29
20260510161726 15 312 4.8 9.7 0.00 0.03 0.00 28
20260510161216 14 231 3.2 11.3 0.00 0.03 0.00 31
20260510160713 14 34 8.0 11.3 0.00 0.03 0.00 30
20260510160214 13 308 3.2 9.7 0.00 0.03 0.00 29
20260510155704 13 0 1.6 14.5 0.00 0.03 0.00 29
20260510155202 13 174 3.2 14.5 0.00 0.03 0.00 29
20260510154701 14 352 3.2 4.8 0.00 0.03 0.00 31
20260510154141 14 352 0.0 6.4 0.00 0.03 0.00 34
20260510153638 14 350 3.2 6.4 0.00 0.03 0.00 31
20260510153126 14 359 0.0 6.4 0.00 0.03 0.00 32
20260510152626 13 340 1.6 4.8 0.00 0.03 0.00 30
20260510152128 13 266 1.6 9.7 0.00 0.03 0.00 28
20260510151614 13 338 1.6 9.7 0.00 0.03 0.00 33
20260510151114 13 341 1.6 6.4 0.00 0.03 0.00 32
20260510150614 13 343 3.2 6.4 0.00 0.03 0.00 31
20260510150104 13 357 3.2 4.8 0.00 0.03 0.00 30
20260510145602 13 29 3.2 4.8 0.00 0.03 0.00 31
20260510145101 13 34 1.6 4.8 0.00 0.03 0.00 35
20260510144550 13 44 4.8 6.4 0.00 0.03 0.00 32
20260510144311 13 343 6.4 6.4 0.00 0.03 0.00 31
20260510143525 12 354 0.0 4.8 0.00 0.03 0.00 36
20260510143028 12 7 3.2 4.8 0.00 0.03 0.00 36
20260510142526 12 39 3.2 4.8 0.00 0.03 0.00 35
20260510142013 12 312 1.6 6.4 0.00 0.03 0.00 34
20260510141514 12 340 0.0 6.4 0.00 0.03 0.00 38
20260510141017 12 276 4.8 4.8 0.00 0.03 0.00 39
20260510140502 12 352 1.6 3.2 0.00 0.03 0.00 38
20260510140002 12 222 3.2 4.8 0.00 0.03 0.00 42
20260510135502 11 275 3.2 3.2 0.00 0.03 0.00 40
20260510134950 12 322 1.6 3.2 0.00 0.03 0.00 40
20260510134450 11 47 1.6 6.4 0.00 0.03 0.00 41
20260510133949 11 114 3.2 6.4 0.00 0.03 0.00 44
20260510133441 11 254 3.2 4.8 0.00 0.03 0.00 48
20260510132938 11 34 3.2 4.8 0.00 0.03 0.00 41
20260510132438 11 346 1.6 3.2 0.00 0.03 0.00 41
20260510131928 11 354 0.0 3.2 0.00 0.03 0.00 42
20260510131426 11 331 0.0 3.2 0.00 0.03 0.00 43
20260510130926 11 27 1.6 3.2 0.00 0.03 0.00 44
20260510130417 10 28 1.6 3.2 0.00 0.03 0.00 48
20260510125914 10 68 0.0 3.2 0.00 0.03 0.00 47
20260510125414 10 343 0.0 4.8 0.00 0.03 0.00 45
20260510124901 10 53 1.6 4.8 0.00 0.03 0.00 49
20260510124404 9 16 0.0 3.2 0.00 0.03 0.00 46
20260510123902 10 71 0.0 3.2 0.00 0.03 0.00 50
20260510123349 10 64 1.6 3.2 0.00 0.03 0.00 47
20260510122852 9 48 1.6 1.6 0.00 0.03 0.00 48
20260510122349 9 11 1.6 3.2 0.00 0.03 0.00 51
20260510121838 9 19 0.0 3.2 0.00 0.03 0.00 52
20260510121340 8 24 1.6 4.8 0.00 0.03 0.00 52
20260510120838 8 334 1.6 4.8 0.00 0.03 0.00 55
20260510120326 8 11 1.6 3.2 0.00 0.03 0.00 55
20260510115826 8 341 1.6 1.6 0.00 0.03 0.00 58
20260510115326 7 343 1.6 1.6 0.00 0.03 0.00 59
20260510114817 7 347 1.6 1.6 0.00 0.03 0.00 61
20260510114314 7 24 1.6 1.6 0.00 0.03 0.00 60
20260510113814 6 357 0.0 1.6 0.00 0.03 0.00 61
20260510113304 6 3 0.0 1.6 0.00 0.03 0.00 63
20260510112802 6 359 0.0 3.2 0.00 0.03 0.00 63
20260510112305 6 27 0.0 3.2 0.00 0.03 0.00 65
20260510111750 6 358 1.6 1.6 0.00 0.03 0.00 65
20260510111253 6 314 0.0 1.6 0.00 0.03 0.00 68
20260510110949 5 316 0.0 1.6 0.00 0.03 0.00 71
20260510110226 4 317 0.0 1.6 0.00 0.03 0.00 78
20260510105729 3 301 0.0 1.6 0.00 0.03 0.00 84
20260510105425 2 235 0.0 0.0 0.00 0.03 0.00 87
20260510104638 2 235 0.0 0.0 0.00 0.03 0.00 88
20260510104140 2 235 0.0 0.0 0.00 0.03 0.00 87
20260510103856 2 235 0.0 0.0 0.00 0.03 0.00 87
20260510103126 2 235 0.0 0.0 0.00 0.03 0.00 86
20260510102654 3 235 0.0 0.0 0.00 0.03 0.00 86
20260510102126 3 235 0.0 0.0 0.00 0.03 0.00 87
20260510101606 3 235 0.0 0.0 0.00 0.03 0.00 87
20260510101026 3 235 0.0 0.0 0.00 0.03 0.00 87
20260510100943 3 234 0.0 0.0 0.00 0.03 0.00 85
20260510095950 3 234 0.0 0.0 0.00 0.03 0.00 84
20260510095425 3 234 0.0 0.0 0.00 0.03 0.00 83
20260510094926 3 234 0.0 0.0 0.00 0.03 0.00 83
20260510094414 3 234 0.0 0.0 0.00 0.03 0.00 83
20260510093913 3 234 0.0 0.0 0.00 0.03 0.00 83
20260510093353 3 234 0.0 0.0 0.00 0.03 0.00 83
20260510092850 3 261 0.0 0.0 0.00 0.03 0.00 83
20260510092314 3 261 0.0 0.0 0.00 0.03 0.00 83
20260510091750 3 261 0.0 0.0 0.00 0.03 0.00 83
20260510091253 4 261 0.0 0.0 0.00 0.03 0.00 82
20260510090716 4 261 0.0 0.0 0.00 0.03 0.00 82
20260510090149 4 261 0.0 0.0 0.00 0.03 0.00 80
20260510085911 4 261 0.0 0.0 0.00 0.03 0.00 79
20260510085150 4 261 0.0 0.0 0.00 0.03 0.00 79
20260510084629 4 261 0.0 0.0 0.00 0.03 0.00 78
20260510084050 5 261 0.0 0.0 0.00 0.03 0.00 78
20260510083514 5 261 0.0 1.6 0.00 0.03 0.00 76
20260510083013 5 261 0.0 1.6 0.00 0.03 0.00 75
20260510082502 5 270 1.6 1.6 0.00 0.03 0.00 74
20260510082002 5 1 0.0 0.0 0.00 0.03 0.00 74
20260510081735 6 3 0.0 0.0 0.00 0.03 0.00 72
20260510081204 6 3 0.0 0.0 0.00 0.03 0.00 71
20260510080625 6 3 0.0 0.0 0.00 0.03 0.00 71
20260510075826 6 3 0.0 0.0 0.00 0.03 0.00 71
20260510075252 6 3 0.0 0.0 0.00 0.03 0.00 71
20260510074714 6 3 0.0 0.0 0.00 0.03 0.00 70
20260510074205 7 3 0.0 0.0 0.00 0.03 0.00 69
20260510073650 7 3 0.0 1.6 0.00 0.03 0.00 69
20260510073152 7 3 0.0 1.6 0.00 0.03 0.00 68
20260510072626 7 2 0.0 1.6 0.00 0.03 0.00 66
20260510072322 7 1 0.0 1.6 0.00 0.03 0.00 66
20260510071605 7 9 0.0 1.6 0.00 0.03 0.00 67
20260510071559 7 10 0.0 1.6 0.00 0.03 0.00 67
20260510070541 7 10 0.0 0.0 0.00 0.03 0.00 65
20260510070037 8 9 0.0 3.2 0.00 0.03 0.00 63
20260510065526 8 10 0.0 3.2 0.00 0.03 0.00 61
20260510065026 8 23 1.6 3.2 0.00 0.03 0.00 61
20260510064526 8 24 1.6 1.6 0.00 0.03 0.00 60
20260510064014 8 0 0.0 1.6 0.00 0.03 0.00 64
20260510063514 7 351 0.0 1.6 0.00 0.03 0.00 63
20260510063014 7 351 0.0 1.6 0.00 0.03 0.00 68
20260510062453 7 339 0.0 0.0 0.00 0.03 0.00 72
20260510062127 7 339 0.0 0.0 0.00 0.03 0.00 71
20260510060926 7 339 0.0 0.0 0.00 0.03 0.00 69
20260510060425 7 339 0.0 0.0 0.00 0.03 0.00 69
20260510055916 8 339 0.0 1.6 0.00 0.03 0.00 68
20260510055546 8 339 0.0 1.6 0.00 0.03 0.00 66
20260510054317 9 3 0.0 0.0 0.00 0.03 0.00 62
20260510054313 10 3 0.0 1.6 0.00 0.03 0.00 60
20260510053250 10 3 0.0 1.6 0.00 0.03 0.00 58
20260510052749 10 17 0.0 1.6 0.00 0.03 0.00 58
20260510052238 10 17 0.0 1.6 0.00 0.03 0.00 57
20260510051741 10 1 0.0 1.6 0.00 0.03 0.00 57
20260510051457 11 6 0.0 3.2 0.00 0.03 0.00 56
20260510050738 11 21 1.6 3.2 0.00 0.03 0.00 56
20260510050226 11 4 0.0 4.8 0.00 0.03 0.00 56
20260510045725 11 359 1.6 4.8 0.00 0.03 0.00 56
20260510045215 11 13 1.6 3.2 0.00 0.03 0.00 56
20260510044714 11 14 1.6 3.2 0.00 0.03 0.00 56
20260510044217 11 21 1.6 3.2 0.00 0.03 0.00 55
20260510043714 11 19 1.6 3.2 0.00 0.03 0.00 56
20260510043202 11 6 1.6 3.2 0.00 0.03 0.00 55
20260510042702 11 358 1.6 3.2 0.00 0.03 0.00 56
20260510042204 11 356 1.6 3.2 0.00 0.03 0.00 55
20260510041908 11 7 1.6 3.2 0.00 0.03 0.00 55
20260510041149 12 24 1.6 4.8 0.00 0.03 0.00 56
20260510040653 12 9 1.6 4.8 0.00 0.03 0.00 55
20260510040150 12 353 1.6 4.8 0.00 0.03 0.00 55
20260510035650 12 345 1.6 3.2 0.00 0.03 0.03 54
20260510035150 12 9 1.6 9.7 0.00 0.03 0.03 54
20260510034650 12 357 3.2 9.7 0.00 0.03 0.03 54
20260510034140 12 349 1.6 9.7 0.00 0.03 0.03 53
20260510033628 12 14 1.6 9.7 0.00 0.03 0.03 54
20260510033114 13 340 1.6 9.7 0.00 0.03 0.03 53
20260510032614 13 357 1.6 9.7 0.00 0.03 0.03 53
20260510032114 13 2 3.2 6.4 0.00 0.03 0.03 52
20260510031604 13 341 1.6 6.4 0.00 0.03 0.03 50
20260510031102 15 25 1.6 6.4 0.00 0.03 0.03 44
20260510030602 15 3 1.6 6.4 0.00 0.03 0.03 43
20260510030051 15 356 1.6 6.4 0.00 0.03 0.03 42
20260510025550 15 359 1.6 3.2 0.00 0.03 0.03 42
20260510025050 15 26 1.6 3.2 0.00 0.03 0.03 42
20260510024806 15 11 1.6 3.2 0.00 0.03 0.03 43
20260510024040 15 318 0.0 4.8 0.00 0.03 0.03 42
20260510023537 15 357 1.6 4.8 0.00 0.03 0.03 42
20260510023026 15 346 1.6 6.4 0.00 0.03 0.03 42
20260510022526 15 356 1.6 6.4 0.00 0.03 0.03 42
20260510022028 15 345 1.6 4.8 0.00 0.03 0.03 41
20260510021514 16 351 3.2 6.4 0.00 0.03 0.03 42
20260510021237 16 348 3.2 6.4 0.00 0.03 0.03 42
20260510020514 16 324 3.2 4.8 0.00 0.03 0.03 43
20260510020005 16 336 1.6 3.2 0.00 0.03 0.03 44
20260510015502 16 350 1.6 3.2 0.00 0.03 0.03 46
20260510015002 16 347 1.6 3.2 0.00 0.03 0.03 47
20260510014450 15 356 0.0 1.6 0.00 0.03 0.03 50
20260510013952 14 282 0.0 1.6 0.00 0.03 0.03 60
20260510013450 14 275 1.6 1.6 0.00 0.03 0.03 58
20260510012941 15 284 0.0 1.6 0.00 0.03 0.03 56
20260510012426 15 284 0.0 1.6 0.00 0.03 0.03 54
20260510011917 15 302 0.0 1.6 0.00 0.03 0.03 53
20260510011402 15 334 0.0 1.6 0.00 0.03 0.03 52
20260510011335 15 352 0.0 0.0 0.00 0.03 0.03 50
20260510010341 16 352 0.0 1.6 0.00 0.03 0.03 49
20260510005826 16 352 0.0 1.6 0.00 0.03 0.03 49
20260510005326 16 353 0.0 4.8 0.00 0.03 0.03 46
20260510005049 17 353 0.0 4.8 0.00 0.03 0.03 43
20260510004746 17 323 1.6 1.6 0.00 0.03 0.03 44
20260510003802 16 0 0.0 1.6 0.00 0.03 0.03 46
20260510003237 17 323 0.0 3.2 0.00 0.03 0.03 45
20260510002737 17 77 1.6 9.7 0.00 0.03 0.03 43
20260510002226 17 344 1.6 9.7 0.00 0.03 0.03 42
20260510001726 17 251 0.0 4.8 0.00 0.03 0.03 42
20260510001449 18 276 0.0 4.8 0.00 0.03 0.03 40
20260510000714 18 294 1.6 11.3 0.00 0.03 0.03 39
20260510000214 18 202 3.2 4.8 0.00 0.03 0.03 40
20260509235714 18 238 0.0 11.3 0.00 0.03 0.03 39
20260509235204 18 279 0.0 11.3 0.00 0.03 0.03 38
20260509234702 18 247 3.2 22.5 0.00 0.03 0.03 38
20260509234202 18 315 3.2 22.5 0.00 0.03 0.03 37
20260509233652 18 290 6.4 14.5 0.00 0.03 0.03 37
20260509233636 18 262 3.2 16.1 0.00 0.03 0.03 37
20260509232650 18 289 6.4 16.1 0.00 0.03 0.03 37
20260509232137 19 10 1.6 17.7 0.00 0.03 0.03 37
20260509231640 19 13 3.2 17.7 0.00 0.03 0.03 35